"Timestamp","TZ","WindDir_Mean (deg)","WindSpd_Mean (km/h)","WindSpd_Min (km/h)","WindSpd_Max (km/h)","Temp_Mean (deg)","RH_Mean (%)","MSLP_Mean (hPa)","Rain_Acc (mm)","Rain_Intensity (mm/h)","Hail_Acc (hits/cm2)","Hail_Intensity (hits/cm2hr)","Solar_Mean (W/m2)"
2021/03/30 00:00:00.009,n,151,2.88,2.16,3.6,22.2,69.9,1018.92,0,0,0,0,0.028725
2021/03/30 00:01:00.000,n,170,3.24,2.88,3.6,22.2,69.8,1018.92,0,0,0,0,0.031357
2021/03/30 00:02:00.002,n,184,1.8,1.8,2.52,22.2,69.9,1018.82,0,0,0,0,0.032196
2021/03/30 00:03:00.000,n,176,3.6,2.52,4.32,22.2,70,1018.82,0,0,0,0,0.030441
2021/03/30 00:04:00.000,n,178,3.96,3.6,4.32,22.2,70,1018.82,0,0,0,0,0.031357
2021/03/30 00:05:00.000,n,154,3.24,1.08,5.04,22.2,70,1018.82,0,0,0,0,0.029564
2021/03/30 00:06:00.007,n,151,4.32,3.6,5.04,22.2,70.1,1018.82,0,0,0,0,0.030441
2021/03/30 00:07:00.004,n,170,4.32,3.96,4.68,22.2,70.1,1018.82,0,0,0,0,0.031357
2021/03/30 00:08:00.001,n,181,5.04,4.68,5.4,22.1,70.3,1018.82,0,0,0,0,0.031357
2021/03/30 00:09:00.015,n,139,3.24,1.8,5.04,22.1,70.3,1018.82,0,0,0,0,0.02697
2021/03/30 00:10:00.000,n,175,2.16,2.16,2.52,22.1,70.3,1018.82,0,0,0,0,0.028725
2021/03/30 00:11:00.000,n,152,1.44,0.36,2.16,22.1,70.4,1018.92,0,0,0,0,0.02697
2021/03/30 00:12:00.000,n,163,4.32,4.32,4.32,22.1,70.5,1018.92,0,0,0,0,0.025215
2021/03/30 00:13:00.004,n,175,3.96,3.6,4.32,22.1,70.6,1018.82,0,0,0,0,0.026131
2021/03/30 00:14:00.001,n,182,5.04,3.96,5.4,22.1,70.7,1018.82,0,0,0,0,0.027847
2021/03/30 00:15:00.000,n,198,1.08,0.72,1.44,22.1,70.9,1018.82,0,0,0,0,0.024376
2021/03/30 00:16:00.011,n,148,1.08,0.72,1.08,22.1,71,1018.82,0,0,0,0,0.023499
2021/03/30 00:17:00.009,n,200,1.8,1.44,2.52,22.1,70.8,1018.82,0,0,0,0,0.024376
2021/03/30 00:18:00.006,n,177,3.96,3.6,4.32,22.1,70.8,1018.82,0,0,0,0,0.025215
2021/03/30 00:19:00.000,n,206,1.8,1.44,2.52,22,70.7,1018.82,0,0,0,0,0.024376
2021/03/30 00:20:00.000,n,174,3.96,3.96,4.32,22,70.7,1018.82,0,0,0,0,0.026131
2021/03/30 00:21:00.000,n,218,3.24,3.24,3.6,22,70.8,1018.82,0,0,0,0,0.022621
2021/03/30 00:22:00.000,n,190,3.24,2.88,3.6,22,70.9,1018.82,0,0,0,0,0.025215
2021/03/30 00:23:00.007,n,203,3.24,2.88,3.24,22,71,1018.82,0,0,0,0,0.024376
2021/03/30 00:24:00.007,n,259,1.8,1.44,2.52,22,71.1,1018.82,0,0,0,0,0.028725
2021/03/30 00:25:00.003,n,332,0.36,0.36,0.36,22,71.3,1018.82,0,0,0,0,0.019989
2021/03/30 00:26:00.000,n,219,3.24,2.88,3.24,22,71.3,1018.82,0,0,0,0,0.023499
2021/03/30 00:27:00.014,n,268,2.88,2.16,2.88,22,71.6,1018.82,0,0,0,0,0.024376
2021/03/30 00:28:00.000,n,270,3.96,3.6,4.68,22,71.4,1018.82,0,0,0,0,0.023499
2021/03/30 00:29:00.000,n,250,2.88,2.52,3.6,22,71.9,1018.82,0,0,0,0,0.023499
2021/03/30 00:30:00.004,n,291,2.52,2.16,2.88,22,71.8,1018.82,0,0,0,0,0.025215
2021/03/30 00:31:00.001,n,277,5.04,4.68,5.04,22,72.3,1018.82,0,0,0,0,0.025215
2021/03/30 00:32:00.000,n,239,2.16,1.44,2.52,21.9,71.9,1018.82,0,0,0,0,0.025253
2021/03/30 00:33:00.000,n,254,3.24,2.88,3.6,22,72.7,1018.82,0,0,0,0,0.028725
2021/03/30 00:34:00.009,n,278,3.6,2.88,4.68,22,72.6,1018.82,0,0,0,0,0.033073
2021/03/30 00:35:00.006,n,231,3.24,2.52,3.96,21.9,72.3,1018.82,0,0,0,0,0.030441
2021/03/30 00:36:00.002,n,266,1.44,1.44,2.52,21.9,72.6,1018.82,0,0,0,0,0.033073
2021/03/30 00:37:00.000,n,258,6.12,5.4,8.28,21.9,72.9,1018.82,0,0,0,0,0.030441
2021/03/30 00:38:00.000,n,253,3.6,3.24,3.96,21.9,72.6,1018.82,0,0,0,0,0.027008
2021/03/30 00:39:00.000,n,240,2.16,1.8,2.16,21.8,72.5,1018.82,0,0,0,0,0.032234
2021/03/30 00:40:00.000,n,232,2.16,1.44,2.88,21.8,72.6,1018.82,0,0,0,0,0.028725
2021/03/30 00:41:00.005,n,259,2.88,2.52,3.6,21.8,73,1018.82,0,0,0,0,0.028725
2021/03/30 00:42:00.002,n,319,2.88,2.16,3.6,21.8,73.2,1018.72,0,0,0,0,0.033073
2021/03/30 00:43:00.000,n,260,2.52,0.72,3.24,21.8,73.2,1018.82,0,0,0,0,0.029602
2021/03/30 00:44:00.013,n,214,1.44,1.08,1.44,21.8,73.1,1018.82,0,0,0,0,0.027847
2021/03/30 00:45:00.010,n,210,3.24,2.88,3.6,21.7,72.8,1018.82,0,0,0,0,0.031357
2021/03/30 00:46:00.000,n,188,3.6,2.88,3.96,21.7,72.9,1018.82,0,0,0,0,0.027008
2021/03/30 00:47:00.000,n,223,1.8,1.44,2.52,21.7,72.9,1018.82,0,0,0,0,0.027008
2021/03/30 00:48:00.000,n,232,2.16,1.08,2.88,21.7,73.2,1018.82,0,0,0,0,0.027008
2021/03/30 00:49:00.000,n,138,1.44,1.08,1.8,21.7,73.5,1018.82,0,0,0,0,0.027008
2021/03/30 00:50:00.000,n,161,3.6,2.16,5.04,21.7,73.2,1018.82,0,0,0,0,0.027008
2021/03/30 00:51:00.008,n,186,0.72,0,1.44,21.7,73.2,1018.72,0,0,0,0,0.023499
2021/03/30 00:52:00.005,n,187,0.72,0,1.08,21.7,73.2,1018.72,0,0,0,0,0.027008
2021/03/30 00:53:00.003,n,315,3.24,1.8,4.68,21.6,73.5,1018.72,0,0,0,0,0.022659
2021/03/30 00:54:00.000,n,139,1.44,1.08,1.8,21.6,73.4,1018.72,0,0,0,0,0.021782
2021/03/30 00:55:00.000,n,172,2.52,2.16,2.88,21.6,73.4,1018.72,0,0,0,0,0.025253
2021/03/30 00:56:00.000,n,163,1.44,0.36,2.52,21.6,73.5,1018.72,0,0,0,0,0.023499
2021/03/30 00:57:00.000,n,126,1.08,0.72,1.08,21.6,73.5,1018.72,0,0,0,0,0.025253
2021/03/30 00:58:00.004,n,134,3.96,2.16,5.76,21.6,73.3,1018.72,0,0,0,0,0.026131
2021/03/30 00:59:00.002,n,176,2.52,2.52,2.88,21.5,73.4,1018.72,0,0,0,0,0.021782
2021/03/30 01:00:00.000,n,259,1.44,1.08,2.16,21.5,73.4,1018.72,0,0,0,0,0.023499
2021/03/30 01:01:00.012,n,94,0.72,0.36,1.08,21.5,73.6,1018.72,0,0,0,0,0.020027
2021/03/30 01:02:00.009,n,253,3.6,2.88,3.96,21.5,73.6,1018.72,0,0,0,0,0.025253
2021/03/30 01:03:00.006,n,253,2.16,0.72,4.32,21.5,73.6,1018.72,0,0,0,0,0.020027
2021/03/30 01:04:00.000,n,252,2.88,2.52,3.24,21.5,73.5,1018.72,0,0,0,0,0.030479
2021/03/30 01:05:00.000,n,248,1.8,1.44,1.8,21.5,73.7,1018.72,0,0,0,0,0.031319
2021/03/30 01:06:00.000,n,190,3.96,2.88,4.32,21.5,73.6,1018.72,0,0,0,0,0.030479
2021/03/30 01:07:00.000,n,239,1.08,0.72,1.8,21.5,73.7,1018.72,0,0,0,0,0.031319
2021/03/30 01:08:00.008,n,336,0.36,0.36,0.72,21.5,74.5,1018.62,0,0,0,0,0.031319
2021/03/30 01:09:00.007,n,105,1.8,0.36,2.88,21.5,74.3,1018.62,0,0,0,0,0.029602
2021/03/30 01:10:00.004,n,246,1.44,1.08,1.8,21.5,74.4,1018.62,0,0,0,0,0.025253
2021/03/30 01:11:00.001,n,247,1.44,1.08,1.8,21.5,74.3,1018.62,0,0,0,0,0.030479
2021/03/30 01:12:00.015,n,238,1.08,0,1.8,21.5,74,1018.62,0,0,0,0,0.032196
2021/03/30 01:13:00.000,n,264,2.16,1.8,2.88,21.5,73.9,1018.62,0,0,0,0,0.025253
2021/03/30 01:14:00.000,n,218,2.16,2.16,2.16,21.4,74,1018.62,0,0,0,0,0.026093
2021/03/30 01:15:00.000,n,243,2.52,2.16,3.24,21.4,74,1018.62,0,0,0,0,0.030479
2021/03/30 01:16:00.004,n,226,1.8,1.44,2.52,21.4,74.2,1018.62,0,0,0,0,0.027847
2021/03/30 01:17:00.001,n,182,1.8,1.44,2.16,21.4,74.1,1018.52,0,0,0,0,0.029602
2021/03/30 01:18:00.000,n,200,1.8,1.44,2.16,21.3,73.7,1018.52,0,0,0,0,0.027847
2021/03/30 01:19:00.011,n,301,1.8,1.44,2.52,21.3,73.9,1018.52,0,0,0,0,0.028687
2021/03/30 01:20:00.009,n,179,1.08,0.72,1.44,21.3,74.2,1018.52,0,0,0,0,0.025253
2021/03/30 01:21:00.006,n,147,0.36,0,0.72,21.3,73.9,1018.52,0,0,0,0,0.020866
2021/03/30 01:22:00.000,n,246,1.44,1.08,2.16,21.3,73.7,1018.52,0,0,0,0,0.024376
2021/03/30 01:23:00.001,n,153,2.88,2.16,3.96,21.3,73.1,1018.52,0,0,0,0,0.022621
2021/03/30 01:24:00.000,n,163,2.52,1.8,2.88,21.2,72.6,1018.52,0,0,0,0,0.026093
2021/03/30 01:25:00.000,n,148,1.08,0.36,1.44,21.2,73,1018.52,0,0,0,0,0.026093
2021/03/30 01:26:00.008,n,96,0.36,0,0.72,21.2,72.5,1018.52,0,0,0,0,0.026093
2021/03/30 01:27:00.006,n,167,2.52,1.8,3.24,21.2,72.5,1018.52,0,0,0,0,0.02346
2021/03/30 01:28:00.002,n,264,3.6,2.88,4.32,21.2,72.4,1018.42,0,0,0,0,0.020866
2021/03/30 01:29:00.001,n,192,2.52,1.8,2.88,21.2,72.2,1018.42,0,0,0,0,0.029602
2021/03/30 01:30:00.014,n,188,2.16,1.44,2.88,21.2,72,1018.42,0,0,0,0,0.025253
2021/03/30 01:31:00.000,n,246,4.68,4.68,5.04,21.2,71.7,1018.42,0,0,0,0,0.02697
2021/03/30 01:32:00.000,n,148,3.24,2.52,3.96,21.2,72,1018.42,0,0,0,0,0.022621
2021/03/30 01:33:00.000,n,259,3.6,2.88,4.32,21.2,71.5,1018.42,0,0,0,0,0.026093
2021/03/30 01:34:00.005,n,166,4.32,3.96,4.68,21.2,71.6,1018.42,0,0,0,0,0.02346
2021/03/30 01:35:00.001,n,242,3.24,2.88,3.96,21.2,71.6,1018.42,0,0,0,0,0.024376
2021/03/30 01:36:00.000,n,182,1.44,0.36,2.16,21.2,71.6,1018.42,0,0,0,0,0.026093
2021/03/30 01:37:00.000,n,177,1.8,1.44,2.16,21.1,71,1018.32,0,0,0,0,0.022621
2021/03/30 01:38:00.010,n,239,0.72,0.36,1.8,21.1,71.9,1018.32,0,0,0,0,0.024376
2021/03/30 01:39:00.008,n,250,1.44,1.08,1.8,21.2,71.6,1018.32,0,0,0,0,0.021744
2021/03/30 01:40:00.000,n,200,1.08,0.36,1.8,21.2,71.1,1018.32,0,0,0,0,0.025253
2021/03/30 01:41:00.002,n,148,2.16,1.08,2.88,21.1,70.8,1018.32,0,0,0,0,0.024376
2021/03/30 01:42:00.000,n,145,3.96,2.52,4.68,21.1,71,1018.32,0,0,0,0,0.026093
2021/03/30 01:43:00.000,n,173,2.16,1.8,2.52,21.1,70.8,1018.32,0,0,0,0,0.024376
2021/03/30 01:44:00.000,n,264,5.04,3.96,6.48,21.1,71.4,1018.32,0,0,0,0,0.018272
2021/03/30 01:45:00.007,n,225,2.16,2.16,2.52,21.1,71.1,1018.32,0,0,0,0,0.024376
2021/03/30 01:46:00.004,n,185,2.16,1.44,5.04,21.1,70.9,1018.22,0,0,0,0,0.020866
2021/03/30 01:47:00.002,n,255,1.8,1.08,3.24,21.1,70.9,1018.22,0,0,0,0,0.019112
2021/03/30 01:48:00.015,n,276,1.8,0,3.24,21.1,72.1,1018.22,0,0,0,0,0.017395
2021/03/30 01:49:00.000,n,158,0.72,0.36,1.08,21.2,72.6,1018.32,0,0,0,0,0.022621
2021/03/30 01:50:00.000,n,192,1.44,1.44,1.8,21.2,71.7,1018.32,0,0,0,0,0.030441
2021/03/30 01:51:00.000,n,233,1.44,1.08,1.8,21.1,71.5,1018.32,0,0,0,0,0.033035
2021/03/30 01:52:00.006,n,220,2.52,2.16,2.88,21.1,71.5,1018.32,0,0,0,0,0.031319
2021/03/30 01:53:00.004,n,221,1.8,1.8,2.52,21.1,71.3,1018.32,0,0,0,0,0.03479
2021/03/30 01:54:00.000,n,225,1.44,0.36,2.16,21.1,71.8,1018.32,0,0,0,0,0.036545
2021/03/30 01:55:00.000,n,258,1.8,1.44,2.88,21.1,72.3,1018.32,0,0,0,0,0.033035
2021/03/30 01:56:00.012,n,108,3.6,2.88,4.68,21.1,72.1,1018.22,0,0,0,0,0.031319
2021/03/30 01:57:00.010,n,131,2.16,0.36,2.88,21.1,71.8,1018.22,0,0,0,0,0.032196
2021/03/30 01:58:00.000,n,173,5.4,5.4,5.76,21,71.7,1018.22,0,0,0,0,0.032196
2021/03/30 01:59:00.000,n,176,1.08,0.72,1.44,21,71.5,1018.22,0,0,0,0,0.02697
2021/03/30 02:00:00.000,n,171,7.2,3.96,9,21,71.5,1018.22,0,0,0,0,0.030441
2021/03/30 02:01:00.000,n,192,3.96,3.6,4.32,20.9,71.5,1018.22,0,0,0,0,0.029602
2021/03/30 02:02:00.000,n,216,4.32,3.96,4.68,20.9,71.8,1018.22,0,0,0,0,0.032196
2021/03/30 02:03:00.008,n,192,2.52,1.8,3.24,20.9,72.1,1018.22,0,0,0,0,0.02697
2021/03/30 02:04:00.005,n,146,4.68,2.88,6.12,20.9,71.7,1018.32,0,0,0,0,0.031319
2021/03/30 02:05:00.003,n,153,6.12,5.76,6.48,20.9,71.8,1018.32,0,0,0,0,0.025215
2021/03/30 02:06:00.001,n,177,5.76,5.4,6.84,20.8,71.9,1018.32,0,0,0,0,0.030441
2021/03/30 02:07:00.000,n,173,5.76,5.04,6.12,20.8,72,1018.32,0,0,0,0,0.02697
2021/03/30 02:08:00.000,n,159,5.04,3.6,6.12,20.8,72.1,1018.32,0,0,0,0,0.023499
2021/03/30 02:09:00.000,n,215,1.8,1.08,2.88,20.8,72.1,1018.32,0,0,0,0,0.02697
2021/03/30 02:10:00.005,n,225,1.8,1.08,2.88,20.7,72.1,1018.32,0,0,0,0,0.029602
2021/03/30 02:11:00.003,n,167,3.6,3.24,3.96,20.7,72.1,1018.32,0,0,0,0,0.02697
2021/03/30 02:12:00.000,n,230,3.6,2.52,4.32,20.7,72.2,1018.32,0,0,0,0,0.02697
2021/03/30 02:13:00.000,n,170,1.44,1.08,1.8,20.7,72.2,1018.32,0,0,0,0,0.025215
2021/03/30 02:14:00.010,n,173,3.24,3.24,3.24,20.7,72.4,1018.32,0,0,0,0,0.026093
2021/03/30 02:15:00.007,n,152,2.16,0.72,3.24,20.7,72.5,1018.32,0,0,0,0,0.026093
2021/03/30 02:16:00.000,n,177,2.88,2.16,3.24,20.7,72.1,1018.32,0,0,0,0,0.028725
2021/03/30 02:17:00.002,n,165,2.88,2.88,3.24,20.7,72,1018.32,0,0,0,0,0.021744
2021/03/30 02:18:00.000,n,197,3.96,3.24,5.04,20.7,72,1018.32,0,0,0,0,0.023499
2021/03/30 02:19:00.000,n,248,3.24,3.24,3.6,20.7,71.7,1018.32,0,0,0,0,0.028725
2021/03/30 02:20:00.000,n,213,2.16,1.8,2.88,20.6,72.3,1018.22,0,0,0,0,0.024376
2021/03/30 02:21:00.006,n,159,1.8,1.08,3.24,20.7,71.9,1018.22,0,0,0,0,0.024376
2021/03/30 02:22:00.003,n,259,2.16,1.8,2.88,20.7,72.3,1018.22,0,0,0,0,0.028725
2021/03/30 02:23:00.000,n,271,2.16,1.44,3.6,20.7,72.7,1018.22,0,0,0,0,0.032196
2021/03/30 02:24:00.013,n,174,1.8,1.44,2.16,20.7,72.2,1018.22,0,0,0,0,0.031319
2021/03/30 02:25:00.000,n,278,1.8,1.44,2.16,20.7,72.4,1018.22,0,0,0,0,0.032196
2021/03/30 02:26:00.000,n,270,1.44,1.08,1.44,20.7,72.3,1018.22,0,0,0,0,0.033951
2021/03/30 02:27:00.005,n,51,0.72,0.36,1.08,20.7,72.2,1018.12,0,0,0,0,0.033073
2021/03/30 02:28:00.002,n,288,6.48,5.76,7.2,20.7,72.9,1018.12,0,0,0,0,0.029602
2021/03/30 02:29:00.000,n,200,1.8,1.44,2.16,20.8,72.9,1018.12,0,0,0,0,0.031319
2021/03/30 02:30:00.000,n,256,5.04,4.32,5.76,20.7,71.8,1018.12,0,0,0,0,0.028725
2021/03/30 02:31:00.010,n,272,3.6,3.24,4.32,20.7,71.6,1018.12,0,0,0,0,0.029602
2021/03/30 02:32:00.006,n,267,3.6,3.24,3.6,20.6,72,1018.12,0,0,0,0,0.033951
2021/03/30 02:33:00.003,n,249,1.08,0.72,1.44,20.6,71.9,1018.12,0,0,0,0,0.031319
2021/03/30 02:34:00.000,n,264,3.6,2.88,3.96,20.6,71.8,1018.12,0,0,0,0,0.02697
2021/03/30 02:35:00.000,n,227,2.16,2.16,2.52,20.6,71.8,1018.12,0,0,0,0,0.024376
2021/03/30 02:36:00.000,n,250,3.24,2.88,3.24,20.6,72,1018.12,0,0,0,0,0.033073
2021/03/30 02:37:00.000,n,257,3.6,3.24,3.96,20.6,72,1018.12,0,0,0,0,0.029602
2021/03/30 02:38:00.005,n,255,2.52,2.16,3.24,20.5,72.1,1018.12,0,0,0,0,0.028725
2021/03/30 02:39:00.003,n,149,1.44,1.08,3.24,20.5,72.8,1018.12,0,0,0,0,0.029602
2021/03/30 02:40:00.000,n,226,1.44,0,1.8,20.5,72.7,1018.12,0,0,0,0,0.030479
2021/03/30 02:41:00.013,n,218,1.08,0.36,1.44,20.5,72.6,1018.12,0,0,0,0,0.032196
2021/03/30 02:42:00.010,n,250,0.72,0.36,0.72,20.5,72.7,1018.12,0,0,0,0,0.029602
2021/03/30 02:43:00.000,n,120,2.52,1.8,3.24,20.5,72.6,1018.12,0,0,0,0,0.026093
2021/03/30 02:44:00.000,n,112,2.16,1.8,2.52,20.5,72.5,1018.12,0,0,0,0,0.030479
2021/03/30 02:45:00.001,n,206,0.72,0.72,1.44,20.5,72.6,1018.12,0,0,0,0,0.029602
2021/03/30 02:46:00.000,n,151,0.72,0.36,0.72,20.5,72.8,1018.12,0,0,0,0,0.026093
2021/03/30 02:47:00.000,n,319,1.08,1.08,1.44,20.5,73.3,1018.12,0,0,0,0,0.025253
2021/03/30 02:48:00.009,n,217,4.32,3.6,5.04,20.5,72.6,1018.22,0,0,0,0,0.024376
2021/03/30 02:49:00.006,n,260,4.68,4.68,5.04,20.5,72.7,1018.22,0,0,0,0,0.026093
2021/03/30 02:50:00.003,n,276,4.68,3.6,7.2,20.5,72.6,1018.22,0,0,0,0,0.02697
2021/03/30 02:51:00.000,n,204,2.16,1.8,2.52,20.5,72.6,1018.22,0,0,0,0,0.022621
2021/03/30 02:52:00.000,n,191,10.08,9,10.440002,20.4,72.2,1018.22,0,0,0,0,0.022621
2021/03/30 02:53:00.000,n,183,8.28,6.84,9.72,20.4,72.5,1018.22,0,0,0,0,0.024376
2021/03/30 02:54:00.000,n,191,8.64,7.92,9.36,20.4,72.4,1018.22,0,0,0,0,0.026093
2021/03/30 02:55:00.005,n,178,9.36,8.28,10.8,20.4,72.3,1018.22,0,0,0,0,0.026093
2021/03/30 02:56:00.002,n,253,3.6,2.88,4.32,20.4,72.4,1018.22,0,0,0,0,0.025253
2021/03/30 02:57:00.000,n,198,4.32,3.6,5.76,20.4,72.2,1018.22,0,0,0,0,0.033073
2021/03/30 02:58:00.011,n,299,3.24,2.16,3.6,20.4,72.9,1018.22,0,0,0,0,0.037422
2021/03/30 02:59:00.009,n,142,1.8,0.36,2.88,20.4,72.9,1018.22,0,0,0,0,0.033951
2021/03/30 03:00:00.006,n,164,8.64,3.24,10.08,20.4,71.9,1018.22,0,0,0,0,0.032196
2021/03/30 03:01:00.000,n,235,3.6,3.24,3.96,20.4,72,1018.22,0,0,0,0,0.0383
2021/03/30 03:02:00.000,n,197,7.92,6.84,8.64,20.4,72,1018.22,0,0,0,0,0.036583
2021/03/30 03:03:00.000,n,165,2.52,0.72,4.68,20.3,72,1018.22,0,0,0,0,0.037422
2021/03/30 03:04:00.000,n,190,5.4,4.32,6.48,20.3,72,1018.22,0,0,0,0,0.035706
2021/03/30 03:05:00.000,n,187,10.8,9.36,12.24,20.3,72,1018.22,0,0,0,0,0.033073
2021/03/30 03:06:00.005,n,227,6.84,5.4,7.92,20.3,72.1,1018.12,0,0,0,0,0.030479
2021/03/30 03:07:00.003,n,214,3.24,1.8,4.68,20.3,72.4,1018.12,0,0,0,0,0.033951
2021/03/30 03:08:00.000,n,269,4.68,3.96,5.4,20.3,72.9,1018.12,0,0,0,0,0.034828
2021/03/30 03:09:00.014,n,155,2.88,2.52,3.24,20.3,72.2,1018.12,0,0,0,0,0.037422
2021/03/30 03:10:00.000,n,204,3.6,2.52,4.68,20.3,72.2,1018.12,0,0,0,0,0.031357
2021/03/30 03:11:00.000,n,178,2.88,0.72,4.32,20.3,72.2,1018.12,0,0,0,0,0.031357
2021/03/30 03:12:00.000,n,214,3.96,3.24,5.4,20.3,72.3,1018.12,0,0,0,0,0.032196
2021/03/30 03:13:00.002,n,252,4.32,3.24,5.4,20.3,72.3,1018.12,0,0,0,0,0.02964
2021/03/30 03:14:00.001,n,162,1.08,0.36,1.8,20.3,72.3,1018.12,0,0,0,0,0.031357
2021/03/30 03:15:00.000,n,195,0.72,0,1.08,20.2,72.3,1018.12,0,0,0,0,0.033073
2021/03/30 03:16:00.011,n,255,1.8,1.44,2.16,20.2,72.8,1018.12,0,0,0,0,0.028725
2021/03/30 03:17:00.008,n,160,6.84,6.48,7.2,20.2,72.5,1018.02,0,0,0,0,0.028725
2021/03/30 03:18:00.006,n,170,3.24,1.8,5.04,20.2,72.5,1018.02,0,0,0,0,0.030479
2021/03/30 03:19:00.000,n,172,6.12,5.4,6.48,20.2,72.6,1018.02,0,0,0,0,0.031357
2021/03/30 03:20:00.000,n,219,5.76,4.32,7.2,20.2,72.4,1018.02,0,0,0,0,0.033951
2021/03/30 03:21:00.000,n,110,2.52,1.08,3.96,20.2,72.4,1018.02,0,0,0,0,0.027008
2021/03/30 03:22:00.000,n,197,5.04,3.6,6.12,20.1,72.6,1018.02,0,0,0,0,0.026131
2021/03/30 03:23:00.008,n,194,8.64,7.56,10.08,20.1,72.5,1018.02,0,0,0,0,0.027847
2021/03/30 03:24:00.005,n,186,9.36,8.28,10.08,20.1,72.5,1018.02,0,0,0,0,0.028725
2021/03/30 03:25:00.002,n,202,2.52,1.8,3.24,20.1,72.6,1018.02,0,0,0,0,0.027008
2021/03/30 03:26:00.000,n,208,5.76,4.32,6.84,20.1,72.6,1018.02,0,0,0,0,0.027008
2021/03/30 03:27:00.013,n,160,2.88,0.72,4.32,20.1,72.7,1018.02,0,0,0,0,0.027847
2021/03/30 03:28:00.000,n,199,3.24,2.52,3.96,20.1,72.7,1018.12,0,0,0,0,0.028725
2021/03/30 03:29:00.000,n,179,4.68,2.88,6.12,20.1,72.7,1018.12,0,0,0,0,0.027008
2021/03/30 03:30:00.000,n,216,3.24,2.88,3.6,20.1,72.7,1018.12,0,0,0,0,0.027847
2021/03/30 03:31:00.002,n,218,4.68,2.88,5.4,20.1,72.6,1018.12,0,0,0,0,0.021782
2021/03/30 03:32:00.000,n,172,3.96,3.24,5.4,20.1,72.6,1018.02,0,0,0,0,0.027847
2021/03/30 03:33:00.000,n,213,0.72,0.36,1.08,20.1,72.8,1018.02,0,0,0,0,0.027847
2021/03/30 03:34:00.010,n,210,7.2,5.4,9.72,20.1,72.6,1018.02,0,0,0,0,0.026131
2021/03/30 03:35:00.007,n,170,0.72,0,1.8,20.1,72.7,1017.92,0,0,0,0,0.027847
2021/03/30 03:36:00.004,n,123,0.72,0.36,1.44,20.2,73,1017.92,0,0,0,0,0.026131
2021/03/30 03:37:00.002,n,226,2.52,1.44,3.6,20.2,72.7,1017.92,0,0,0,0,0.028725
2021/03/30 03:38:00.000,n,292,1.8,1.08,2.52,20.2,72.6,1017.92,0,0,0,0,0.025253
2021/03/30 03:39:00.000,n,267,3.24,2.88,3.96,20.2,72.7,1017.92,0,0,0,0,0.026131
2021/03/30 03:40:00.000,n,218,2.52,2.16,3.24,20.2,72.8,1017.92,0,0,0,0,0.023499
2021/03/30 03:41:00.007,n,230,3.96,3.6,4.32,20.2,72.5,1017.82,0,0,0,0,0.026131
2021/03/30 03:42:00.006,n,135,1.08,0.72,1.8,20.2,72.5,1017.82,0,0,0,0,0.025253
2021/03/30 03:43:00.002,n,331,2.16,1.44,3.6,20.2,73.6,1017.82,0,0,0,0,0.023499
2021/03/30 03:44:00.000,n,280,5.76,4.68,6.48,20.3,72.7,1017.82,0,0,0,0,0.024376
2021/03/30 03:45:00.013,n,287,7.92,6.84,8.64,20.3,72.8,1017.82,0,0,0,0,0.022621
2021/03/30 03:46:00.000,n,264,2.88,2.52,3.6,20.2,72.4,1017.82,0,0,0,0,0.025253
2021/03/30 03:47:00.000,n,273,2.88,2.16,3.96,20.2,72.7,1017.82,0,0,0,0,0.027847
2021/03/30 03:48:00.004,n,270,3.96,3.24,4.68,20.2,72.7,1017.92,0,0,0,0,0.026131
2021/03/30 03:49:00.001,n,256,2.52,2.52,2.88,20.2,72.9,1017.92,0,0,0,0,0.027847
2021/03/30 03:50:00.000,n,171,1.08,0.36,1.8,20.2,73,1017.92,0,0,0,0,0.027008
2021/03/30 03:51:00.000,n,315,1.8,0.72,3.24,20.2,74.2,1017.92,0,0,0,0,0.027008
2021/03/30 03:52:00.009,n,181,2.16,1.44,2.88,20.2,73.4,1017.92,0,0,0,0,0.027847
2021/03/30 03:53:00.006,n,281,4.68,4.32,5.04,20.2,73.2,1017.92,0,0,0,0,0.025253
2021/03/30 03:54:00.003,n,261,6.12,5.76,6.12,20.2,73,1017.92,0,0,0,0,0.026131
2021/03/30 03:55:00.000,n,257,6.12,4.68,6.48,20.2,73,1017.92,0,0,0,0,0.024376
2021/03/30 03:56:00.000,n,287,6.48,5.76,7.2,20.1,73.2,1017.92,0,0,0,0,0.025253
2021/03/30 03:57:00.000,n,280,6.12,5.4,6.84,20.1,73.2,1017.92,0,0,0,0,0.024376
2021/03/30 03:58:00.000,n,151,2.16,2.16,2.88,20.1,73.6,1017.92,0,0,0,0,0.026131
2021/03/30 03:59:00.005,n,297,3.24,2.52,3.96,20.1,74.1,1017.92,0,0,0,0,0.028725
2021/03/30 04:00:00.005,n,284,4.68,4.32,5.76,20.1,74.8,1017.92,0,0,0,0,0.027008
2021/03/30 04:01:00.002,n,239,1.44,0.36,1.8,20.2,74.7,1017.92,0,0,0,0,0.026131
2021/03/30 04:02:00.000,n,240,3.24,2.88,3.96,20.2,73.8,1017.92,0,0,0,0,0.028725
2021/03/30 04:03:00.013,n,266,4.68,2.88,5.4,20.1,73.8,1017.82,0,0,0,0,0.027008
2021/03/30 04:04:00.000,n,262,0.36,0,0.72,20.1,73.9,1017.82,0,0,0,0,0.030479
2021/03/30 04:05:00.000,n,248,2.16,1.08,2.88,20.1,73.7,1017.92,0,0,0,0,0.027008
2021/03/30 04:06:00.005,n,147,1.44,0.72,2.16,20.1,73.8,1017.92,0,0,0,0,0.027008
2021/03/30 04:07:00.001,n,338,2.16,0.72,3.6,20.1,73.9,1017.92,0,0,0,0,0.031357
2021/03/30 04:08:00.000,n,216,0.36,0,0.72,20.1,73.9,1018.02,0,0,0,0,0.033951
2021/03/30 04:09:00.000,n,225,4.32,3.6,5.04,20.1,73.6,1018.02,0,0,0,0,0.02964
2021/03/30 04:10:00.010,n,168,1.8,0.72,3.96,20.1,73.5,1018.02,0,0,0,0,0.027847
2021/03/30 04:11:00.007,n,204,3.24,2.88,3.6,20.1,73.5,1018.02,0,0,0,0,0.030479
2021/03/30 04:12:00.005,n,182,8.64,7.56,9.72,20.1,73.1,1018.02,0,0,0,0,0.027008
2021/03/30 04:13:00.002,n,279,2.52,2.16,3.24,20.1,73.3,1018.02,0,0,0,0,0.027008
2021/03/30 04:14:00.000,n,226,1.8,1.44,2.52,20.1,73.4,1018.02,0,0,0,0,0.028725
2021/03/30 04:15:00.000,n,197,6.12,5.76,6.84,20.1,73.3,1018.02,0,0,0,0,0.028725
2021/03/30 04:16:00.000,n,191,1.8,0.72,3.6,20.1,73.2,1018.12,0,0,0,0,0.031357
2021/03/30 04:17:00.006,n,184,7.56,6.84,7.92,20.1,73.2,1018.12,0,0,0,0,0.033073
2021/03/30 04:18:00.003,n,203,2.88,0.72,5.4,20.1,73.2,1018.12,0,0,0,0,0.030479
2021/03/30 04:19:00.000,n,195,7.92,6.84,9,20.1,73.3,1018.12,0,0,0,0,0.027847
2021/03/30 04:20:00.000,n,203,5.04,3.96,6.48,20.1,73.3,1018.12,0,0,0,0,0.027847
2021/03/30 04:21:00.012,n,186,7.56,6.12,9,20.1,73.3,1018.12,0,0,0,0,0.026131
2021/03/30 04:22:00.000,n,202,9.36,7.92,11.16,20.1,73.2,1018.12,0,0,0,0,0.024376
2021/03/30 04:23:00.000,n,168,6.12,5.04,6.48,20.1,73.2,1018.12,0,0,0,0,0.037384
2021/03/30 04:24:00.002,n,143,1.44,1.08,1.8,20.1,73.2,1018.12,0,0,0,0,0.035667
2021/03/30 04:25:00.000,n,350,3.24,2.52,5.04,20.1,73.8,1018.02,0,0,0,0,0.035667
2021/03/30 04:26:00.000,n,72,0.72,0.36,1.08,20.2,73.4,1018.02,0,0,0,0,0.033035
2021/03/30 04:27:00.000,n,249,2.52,2.16,2.88,20.2,73.6,1018.12,0,0,0,0,0.037384
2021/03/30 04:28:00.008,n,186,5.4,5.04,6.12,20.2,73.1,1018.12,0,0,0,0,0.03479
2021/03/30 04:29:00.005,n,174,3.96,1.8,6.48,20.2,72.9,1018.12,0,0,0,0,0.031319
2021/03/30 04:30:00.002,n,233,3.96,2.52,5.04,20.2,73,1018.12,0,0,0,0,0.031319
2021/03/30 04:31:00.000,n,195,1.44,0.36,2.16,20.2,73,1018.12,0,0,0,0,0.03479
2021/03/30 04:32:00.000,n,182,2.52,1.08,4.32,20.2,72.9,1018.12,0,0,0,0,0.033035
2021/03/30 04:33:00.000,n,178,2.88,2.16,3.6,20.2,73,1018.12,0,0,0,0,0.032158
2021/03/30 04:34:00.000,n,186,3.24,2.16,4.68,20.2,73.1,1018.12,0,0,0,0,0.033951
2021/03/30 04:35:00.005,n,210,2.52,1.8,2.88,20.2,73,1018.12,0,0,0,0,0.033951
2021/03/30 04:36:00.003,n,42,2.16,1.8,2.52,20.2,73.4,1018.12,0,0,0,0,0.031319
2021/03/30 04:37:00.000,n,272,1.44,0.72,1.8,20.3,73.5,1018.12,0,0,0,0,0.037384
2021/03/30 04:38:00.013,n,105,1.44,0.72,1.8,20.3,73.3,1018.12,0,0,0,0,0.038261
2021/03/30 04:39:00.011,n,126,1.44,1.44,1.8,20.3,72.8,1018.12,0,0,0,0,0.036545
2021/03/30 04:40:00.000,n,232,2.88,2.16,3.24,20.3,72.7,1018.12,0,0,0,0,0.032158
2021/03/30 04:41:00.000,n,184,5.4,5.04,5.76,20.3,72.4,1018.02,0,0,0,0,0.033035
2021/03/30 04:42:00.002,n,235,2.16,1.8,2.16,20.3,72.5,1018.12,0,0,0,0,0.037384
2021/03/30 04:43:00.000,n,137,0.72,0.36,0.72,20.3,72.9,1018.12,0,0,0,0,0.037384
2021/03/30 04:44:00.000,n,211,3.24,3.24,3.6,20.3,72.6,1018.12,0,0,0,0,0.036545
2021/03/30 04:45:00.010,n,203,5.04,4.32,5.76,20.4,72.5,1018.12,0,0,0,0,0.03479
2021/03/30 04:46:00.008,n,280,3.24,2.52,3.6,20.4,72.6,1018.02,0,0,0,0,0.035667
2021/03/30 04:47:00.004,n,251,2.88,2.52,3.24,20.4,72.7,1018.02,0,0,0,0,0.033035
2021/03/30 04:48:00.002,n,246,1.8,1.44,2.52,20.4,73.4,1018.02,0,0,0,0,0.038261
2021/03/30 04:49:00.000,n,282,3.96,3.24,5.4,20.4,72.7,1018.02,0,0,0,0,0.032158
2021/03/30 04:50:00.000,n,176,1.8,1.08,2.52,20.4,72.7,1018.02,0,0,0,0,0.040016
2021/03/30 04:51:00.000,n,323,1.8,0.72,2.52,20.4,72.8,1017.92,0,0,0,0,0.036545
2021/03/30 04:52:00.000,n,291,2.88,2.52,3.6,20.4,72.7,1017.92,0,0,0,0,0.038261
2021/03/30 04:53:00.004,n,279,3.96,2.88,4.68,20.4,73.4,1017.92,0,0,0,0,0.039139
2021/03/30 04:54:00.002,n,237,3.24,2.52,3.6,20.4,72.6,1017.92,0,0,0,0,0.039139
2021/03/30 04:55:00.000,n,259,5.4,4.32,6.48,20.4,72.5,1017.92,0,0,0,0,0.038261
2021/03/30 04:56:00.013,n,277,7.2,6.12,8.28,20.4,72.5,1017.92,0,0,0,0,0.040894